星链-1416 (STARLINK-1416 )

导读 | 豆包AI

STARLINK-1416是美国太空探索技术公司星链星座中的一颗卫星,于2020年6月4日发射升空。星链系统旨在为全球提供高速互联网覆盖,该卫星加入星座后,进一步扩充了星链低轨卫星网络的规模,助力提升全球偏远地区以及海洋、航空等场景的互联网接入能力,推动全球互联网络覆盖范围拓展。

Basic Information
目录编号:
45692
目录名称:
STARLINK-1416
国际标识:
2020-035AM
轨道中心:
EARTH
卫星名称:
星链-1416
卫星全名:
星链-1416 (STARLINK-1416 )
卫星状态:
已陨落 最后检测时间 2024-09-23
发射日期:
2020-06-04 UTC
国别 :
美国 (US)
星等 :
--
Orbit Information
数据来源 国际轨道数据
星历时间: 2024-09-23T15:29:54+0800
轨道信息已过期537天
半长轴: 6541.727km
偏心率: 0.0002116
轨道倾角: 53.028°
近地点辐角 219.366°
升交点赤经 256.578°
平近点角 244.675°
近地点: 162.207km
远地点: 164.977km
周期: 87.760分钟
每日圈数: 16.408322
Detailed Information
固有亮度:
5
最大亮度:
2.5
卫星平台:
Starlink V1.0
覆盖范围:
全球
运营商:
太空探索技术公司
运营商所在国:
美国
制造商(研发单位):
太空探索技术公司
制造商所在国:
美国
使用方式:
暂无
Satellite Introduction
星链(Starlink)计划是由太空探索技术公司(SpaceX)提出的一个巨型低轨卫星互联网星座项目,计划在2019年至2024年间在太空搭建由约1.2万颗卫星组成的“星链”网络,其中1584颗将部署在地球上空550千米处的近地轨道,并从2020年开始工作。该卫星仍在工作。